Home > Time Zones > World Clock > Weather > Ghana > Accra > Past weeks

Flag for Ghana Weather past 2 weeks in Accra, Ghana

Now
90 °F

Passing clouds.


Feels Like: 100 °F
Forecast: 78 / 87 °F
Wind: 13 mph from South

Location: Accra Airport


UV Index: 10 (Very high)

Visibility: N/A


Pressure: 29.83 "Hg

Humidity: 63%

Dew point: 75 °F

Location of AccraLocation

Historic Weather in Accra

°F

Accra temperature yesterday

Maximum temperature yesterday: 90 °F (at 10:56 AM)
Minimum temperature yesterday: 79 °F (at 6:00 AM)
Average temperature yesterday: 84 °F

Past Weeks' High & Low Weather Summary

 TemperatureHumidityPressure
High90 °F (Apr 16, 11:00 AM)94% (Apr 11, 9:54 PM)30.12 "Hg (Apr 11, 9:54 PM)
Low73 °F (Apr 10, 10:55 AM)59% (Apr 19, 12:00 PM)29.74 "Hg (Apr 10, 2:54 PM)
Average82 °F80%29.84 "Hg
* Reported Apr 4 12:00 Noon — Apr 19 12:00 Noon, Accra, Weather by CustomWeather, © 2014

Note: Actual official high and low records may vary slightly from our data, if they occured in-between our weather recording intervals... More about our weather records

Advertising

Historic Weather Conditions — Data for Previous 24 hours

 ConditionsComfort  
Time TempWeatherWind HumidityBarometerVisibility
12:00 PM
Apr 19
90 °FPassing clouds.10 mph59%29.86 "HgN/A
10:55 AM88 °FPassing clouds.12 mph66%29.89 "HgN/A
9:56 AM86 °FScattered clouds.5 mph70%29.89 "HgN/A
8:56 AM86 °FPassing clouds.6 mph75%29.89 "HgN/A
7:57 AM82 °FSunny.1 mph79%29.89 "Hg10 mi
6:55 AM79 °FSunny.3 mph89%29.86 "Hg10 mi
5:58 AM79 °FPassing clouds.6 mph89%29.86 "HgN/A
4:54 AM79 °FClear.6 mph89%29.83 "Hg10 mi
3:55 AM79 °FClear.9 mph89%29.83 "Hg10 mi
2:55 AM79 °FClear.7 mph89%29.83 "Hg10 mi
1:55 AM79 °FClear.7 mph89%29.80 "Hg10 mi
11:56 PM
Apr 18
81 °FPassing clouds.3 mph89%29.83 "HgN/A
10:54 PM81 °FClear.6 mph89%29.83 "Hg10 mi
9:57 PM81 °FPassing clouds.7 mph89%29.83 "HgN/A
9:00 PM82 °FClear.6 mph84%29.77 "Hg10 mi
4:57 PM86 °FPassing clouds.9 mph75%29.77 "HgN/A
3:58 PM88 °FScattered clouds.10 mph70%29.77 "HgN/A
1:59 PM90 °FPartly sunny.10 mph67%29.80 "HgN/A
Weather by CustomWeather, © 2014

See weather overview